Milas, Turkey

5:25 PM +03 on November 21, 2017 (GMT +0300)
Bodrum

Weather History for LTFE - June, 2013

Change the Weather History Date:

Friday, June 21, 2013

  Actual Average Record
Temperature  
Mean Temperature 82 °F -  
Max Temperature 96 °F - - ()
Min Temperature 69 °F - - ()
Cooling Degree Days 18    
Growing Degree Days 32 (Base 50)    
Moisture  
Dew Point 58 °F    
Average Humidity 42    
Maximum Humidity 73    
Minimum Humidity 22    
Precipitation  
Precipitation 0.00 in - - ()
Sea Level Pressure  
Sea Level Pressure 29.75 in    
Wind  
Wind Speed 6 mph ()    
Max Wind Speed 15 mph    
Max Gust Speed -    
T = Trace of Precipitation, MM = Missing Value Source: Averaged Metar Reports

Daily Weather History Graph

Daily Weather History Graph

Search for Another Location

Airport or City:

Trip Planner

Search our weather history database for the weather conditions in past years. The results will help you decide how hot, cold, wet, or windy it might be!

Date:

Astronomy

Jun. 21, 2013 Rise Set
Actual Time 5:49 AM EEST 8:32 PM EEST
Civil Twilight 5:18 AM EEST 9:03 PM EEST
Nautical Twilight 4:39 AM EEST 9:42 PM EEST
Astronomical Twilight 3:55 AM EEST 10:26 PM EEST
Moon 6:23 PM EEST 3:45 AM EEST
Length of Visible Light 15h 45m
Length of Day
14h 43m
Waxing Gibbous, 93% of the Moon is Illuminated
Jun 21
Waxing Gibbous
Jun 23
Full
Jun 30
Last Quarter
Jul 8
New
Jul 16
First Quarter

Hourly Weather History & Observations

Time (EEST) Temp. Heat Index Dew Point Humidity Pressure Visibility Wind Dir Wind Speed Gust Speed Precip Events Conditions
12:20 AM 80.6 °F 80.5 °F 55.4 °F 42% 29.74 in - SE 5.8 mph - N/A   Clear
12:50 AM 78.8 °F - 59.0 °F 51% 29.74 in - SSE 6.9 mph - N/A   Clear
1:20 AM 80.6 °F - 51.8 °F 37% 29.74 in - East 6.9 mph - N/A   Clear
1:50 AM 78.8 °F - 53.6 °F 42% 29.74 in - ESE 3.5 mph - N/A   Clear
2:20 AM 78.8 °F - 59.0 °F 51% 29.74 in - Variable 2.3 mph - N/A   Clear
2:50 AM 77.0 °F - 59.0 °F 54% 29.74 in - Variable 2.3 mph - N/A   Clear
3:20 AM 75.2 °F - 60.8 °F 61% 29.74 in - Variable 2.3 mph - N/A   Clear
3:50 AM 75.2 °F - 62.6 °F 65% 29.74 in - WNW 3.5 mph - N/A   Clear
4:20 AM 73.4 °F - 62.6 °F 69% 29.74 in - WSW 2.3 mph - N/A   Clear
4:50 AM 73.4 °F - 55.4 °F 53% 29.74 in - Variable 2.3 mph - N/A   Clear
5:20 AM 71.6 °F - 55.4 °F 57% 29.74 in - Calm Calm - N/A   Clear
5:50 AM 69.8 °F - 55.4 °F 60% 29.74 in - Variable 1.2 mph - N/A   Clear
6:20 AM 71.6 °F - 55.4 °F 57% 29.74 in - Variable 1.2 mph - N/A   Clear
6:50 AM 71.6 °F - 62.6 °F 73% 29.74 in - NNW 3.5 mph - N/A   Clear
7:20 AM 77.0 °F - 57.2 °F 50% 29.77 in - Variable 2.3 mph - N/A   Clear
7:50 AM 80.6 °F 80.3 °F 53.6 °F 39% 29.77 in - East 3.5 mph - N/A   Clear
8:20 AM 86.0 °F 84.2 °F 53.6 °F 33% 29.77 in - Variable 2.3 mph - N/A   Clear
8:50 AM 87.8 °F - 51.8 °F 29% 29.77 in - Variable 2.3 mph - N/A   Clear
9:20 AM 89.6 °F 87.3 °F 53.6 °F 29% 29.77 in - WNW 4.6 mph - N/A   Clear
9:50 AM 91.4 °F 89.1 °F 53.6 °F 28% 29.77 in - WNW 6.9 mph - N/A   Clear
10:20 AM 91.4 °F - 51.8 °F 26% 29.77 in - NW 5.8 mph - N/A   Clear
10:50 AM 93.2 °F 91.3 °F 55.4 °F 28% 29.77 in - WNW 8.1 mph - N/A   Clear
11:20 AM 93.2 °F 90.8 °F 53.6 °F 26% 29.77 in - WNW 8.1 mph - N/A   Clear
11:50 AM 95.0 °F - 50.0 °F 22% 29.77 in - WNW 10.4 mph - N/A   Clear
12:20 PM 95.0 °F - 51.8 °F 23% 29.77 in - West 12.7 mph - N/A   Clear
12:50 PM 95.0 °F 92.7 °F 53.6 °F 25% 29.74 in - West 13.8 mph - N/A   Clear
1:20 PM 96.8 °F 94.4 °F 53.6 °F 23% 29.74 in - West 13.8 mph - N/A   Clear
1:50 PM 96.8 °F 94.4 °F 53.6 °F 23% 29.74 in - West 15.0 mph - N/A   Clear
2:20 PM 96.8 °F 94.4 °F 53.6 °F 23% 29.74 in - West 15.0 mph - N/A   Clear
2:50 PM 96.8 °F 94.4 °F 53.6 °F 23% 29.74 in - West 15.0 mph - N/A   Clear
3:20 PM 96.8 °F 94.4 °F 53.6 °F 23% 29.74 in - WSW 13.8 mph - N/A   Clear
3:50 PM 96.8 °F 95.1 °F 55.4 °F 25% 29.71 in - WSW 12.7 mph - N/A   Clear
4:20 PM 96.8 °F 95.1 °F 55.4 °F 25% 29.71 in - WSW 11.5 mph - N/A   Clear
4:50 PM 95.0 °F 93.7 °F 57.2 °F 28% 29.71 in - West 8.1 mph - N/A   Clear
5:20 PM 93.2 °F 92.6 °F 59.0 °F 32% 29.71 in - West 8.1 mph - N/A   Clear
5:50 PM 91.4 °F 91.4 °F 60.8 °F 36% 29.71 in - West 8.1 mph - N/A   Clear
6:20 PM 89.6 °F 90.1 °F 62.6 °F 40% 29.71 in - SSW 12.7 mph - N/A   Clear
6:50 PM 87.8 °F 88.5 °F 62.6 °F 43% 29.71 in - SW 9.2 mph - N/A   Clear
7:20 PM 84.2 °F 85.6 °F 64.4 °F 51% 29.71 in - SSW 12.7 mph - N/A   Clear
7:50 PM 84.2 °F 85.6 °F 64.4 °F 51% 29.74 in - SSW 11.5 mph - N/A   Clear
8:20 PM 82.4 °F 83.4 °F 62.6 °F 51% 29.74 in - SSW 9.2 mph - N/A   Clear
8:50 PM 80.6 °F 81.8 °F 62.6 °F 54% 29.74 in - SSW 9.2 mph - N/A   Clear
9:20 PM 80.6 °F 82.3 °F 64.4 °F 58% 29.77 in - SSW 10.4 mph - N/A   Clear
9:50 PM 80.6 °F 81.8 °F 62.6 °F 54% 29.77 in - SW 6.9 mph - N/A   Clear
10:20 PM 78.8 °F - 62.6 °F 57% 29.77 in - South 6.9 mph - N/A   Clear
10:50 PM 77.0 °F - 62.6 °F 61% 29.77 in - SW 3.5 mph - N/A   Clear
11:20 PM 77.0 °F - 62.6 °F 61% 29.80 in - Variable 1.2 mph - N/A   Clear
11:50 PM 77.0 °F - 62.6 °F 61% 29.80 in - Variable 2.3 mph - N/A   Clear